User: anonymous   Login
Location: Killarney Provincial Park Observatory
(46.0124°N, 81.4000°W)
Time: 05:38:33
(UTC-04:00)
Language:

Iridium 22 - Orbit

View from above orbital plane
View from above orbital plane
View from above satellite
View from above satellite

Ground track
Ground track

The orbit data is extracted from the following two-line orbital elements,

1 24907U 97043E   14294.50072759  .00000308  00000-0  10308-3 0   234
2 24907 086.3934 301.3284 0002225 105.7634 005.8550 14.34217417898849
Epoch (UTC): 21 October 2014 12:01:02
Eccentricity: 0.0002225
inclination: 86.3934°
perigee height: 776 km
apogee height: 779 km
right ascension of ascending node: 301.3284°
argument of perigee: 105.7634°
revolutions per day: 14.34217417
mean anomaly at epoch: 5.8550°
orbit number at epoch: 89884

The dashed part of the orbit path shows where the satellite is in the earth's shadow,  

DLR